Fort Campbell, KY

9:45 AM CDT on October 23, 2017 (GMT -0500)
Campbell Army Air Field

Weather History for KHOP - November, 2012

Change the Weather History Date:

Thursday, November 1, 2012

  Actual Average Record
Temperature  
Mean Temperature 46 °F -  
Max Temperature 62 °F 63 °F 85 °F (2016)
Min Temperature 30 °F 43 °F 30 °F (2012)
Degree Days  
Heating Degree Days 19    
Moisture  
Dew Point 27 °F    
Average Humidity 51    
Maximum Humidity 83    
Minimum Humidity 19    
Precipitation  
Precipitation 0.00 in - - ()
Sea Level Pressure  
Sea Level Pressure 29.98 in    
Wind  
Wind Speed 5 mph (WSW)    
Max Wind Speed 10 mph    
Max Gust Speed -    
Visibility 10 miles    
Events      
Averages and records for this station are not official NWS values.
T = Trace of Precipitation, MM = Missing Value Source: NWS Daily Summary

Daily Weather History Graph

Daily Weather History Graph

Search for Another Location

Airport or City:

Trip Planner

Search our weather history database for the weather conditions in past years. The results will help you decide how hot, cold, wet, or windy it might be!

Date:

Astronomy

Nov. 01, 2012 Rise Set
Actual Time 7:14 AM CDT 5:52 PM CDT
Civil Twilight 6:47 AM CDT 6:19 PM CDT
Nautical Twilight 6:16 AM CDT 6:49 PM CDT
Astronomical Twilight 5:46 AM CDT 7:20 PM CDT
Moon 7:52 PM CDT (11/1) 9:43 AM CDT (11/1)
Length of Visible Light 11h 32m
Length of Day
10h 38m
Waning Gibbous, 93% of the Moon is Illuminated
Nov 1
Waning Gibbous
Nov 6
Last Quarter
Nov 13
New
Nov 20
First Quarter
Nov 28
Full

Hourly Weather History & Observations

Time (CDT) Temp. Windchill Dew Point Humidity Pressure Visibility Wind Dir Wind Speed Gust Speed Precip Events Conditions
12:55 AM 33.1 °F 30.0 °F 24.4 °F 71% 29.98 in 10.0 mi WSW 3.5 mph - N/A   Mostly Cloudy
1:55 AM 31.1 °F 27.7 °F 23.9 °F 75% 29.97 in 10.0 mi WSW 3.5 mph - N/A   Clear
2:55 AM 30.9 °F 27.5 °F 23.5 °F 74% 29.98 in 10.0 mi WSW 3.5 mph - N/A   Clear
3:55 AM 31.5 °F 26.8 °F 23.2 °F 71% 29.98 in 10.0 mi SW 4.6 mph - N/A   Clear
4:55 AM 30.2 °F 25.4 °F 23.4 °F 76% 29.98 in 10.0 mi WSW 4.6 mph - N/A   Clear
5:55 AM 32.5 °F 27.1 °F 25.0 °F 74% 30.00 in 10.0 mi West 5.8 mph - N/A   Clear
6:55 AM 30.6 °F 27.1 °F 24.6 °F 79% 30.02 in 10.0 mi WSW 3.5 mph - N/A   Clear
7:55 AM 31.6 °F 28.3 °F 27.1 °F 83% 30.03 in 10.0 mi West 3.5 mph - N/A   Mostly Cloudy
8:55 AM 42.3 °F 38.6 °F 28.9 °F 59% 30.04 in 10.0 mi West 5.8 mph - N/A   Scattered Clouds
9:55 AM 48.6 °F - 28.6 °F 46% 30.04 in 10.0 mi WSW 4.6 mph - N/A   Partly Cloudy
10:55 AM 52.9 °F - 23.7 °F 32% 30.04 in 10.0 mi WNW 5.8 mph - N/A   Partly Cloudy
11:55 AM 56.8 °F - 19.9 °F 24% 30.03 in 10.0 mi WSW 6.9 mph - N/A   Clear
12:55 PM 59.4 °F - 19.9 °F 22% 30.00 in 10.0 mi West 10.4 mph - N/A   Clear
1:55 PM 61.7 °F - 18.5 °F 19% 29.99 in 10.0 mi WNW 10.4 mph - N/A   Clear
2:55 PM 62.1 °F - 22.8 °F 22% 29.98 in 10.0 mi West 5.8 mph - N/A   Partly Cloudy
3:55 PM 61.7 °F - 28.9 °F 29% 29.96 in 10.0 mi West 8.1 mph - N/A   Clear
4:55 PM 59.5 °F - 30.7 °F 34% 29.96 in 10.0 mi West 8.1 mph - N/A   Mostly Cloudy
5:55 PM 57.4 °F - 31.5 °F 37% 29.95 in 10.0 mi West 6.9 mph - N/A   Overcast
6:55 PM 57.6 °F - 31.3 °F 37% 29.96 in 10.0 mi WSW 6.9 mph - N/A   Overcast
7:55 PM 54.3 °F - 33.3 °F 45% 29.96 in 10.0 mi SW 5.8 mph - N/A   Overcast
8:55 PM 53.2 °F - 33.6 °F 47% 29.95 in 10.0 mi SW 8.1 mph - N/A   Overcast
9:55 PM 54.3 °F - 33.6 °F 46% 29.94 in 10.0 mi WSW 6.9 mph - N/A   Overcast
10:55 PM 50.0 °F - 33.8 °F 54% 29.95 in 10.0 mi WSW 3.5 mph - N/A   Clear
11:55 PM 47.3 °F - 34.0 °F 60% 29.94 in 10.0 mi SSW 6.9 mph - N/A   Clear